Regional Weather Roundup
Issued by NWS

Home | Current Version | Previous Version | Text Only | Print | Product List | Glossary On
Versions: 1 2 3 4 5 6 7 8 9 10 11 12 13 14 15 16 17 18 19 20 21 22 23 24 25 26 27 28 29 30 31 32 33 34 35 36 37 38 39 40 41 42 43 44 45 46 47 48 49 50
000
ASUS43 KLMK 231810
RWRKY
KENTUCKY REGIONAL WEATHER ROUNDUP
NATIONAL WEATHER SERVICE LOUISVILLE KY
100 PM EST FRI FEB 23 2018

NOTE "FAIR" INDICATES FEW OR NO CLOUDS BELOW 12,000 FEET
WITH NO SIGNIFICANT WEATHER AND/OR OBSTRUCTIONS TO VISIBILITY.

KYZ001>023-026-027-061>063-070>075-231900-
WESTERN AND SOUTH CENTRAL KENTUCKY

CITY           SKY/WX    TMP DP  RH WIND       PRES   REMARKS
PADUCAH        CLOUDY    55  53  93 NW10      30.28F
HENDERSON      LGT RAIN  53  50  89 W5        30.29F
OWENSBORO      CLOUDY    54  52  93 NW5       30.29R
HOPKINSVILLE   FAIR      70  63  79 SW10      30.27F
BOWLING GREEN  FAIR      67  64  90 SW14      30.29F
GLASGOW        PTSUNNY   71  60  70 SW14      30.29F
$$

KYZ024-025-028>034-038-045-046-053-231900-
NORTH CENTRAL KENTUCKY

CITY           SKY/WX    TMP DP  RH WIND       PRES   REMARKS
LOUISVILLE/SDF PTSUNNY   66  62  87 SW10      30.24F
LOUISVILLE/LOU CLOUDY    65  63  93 SW14      30.26F
FORT KNOX      CLOUDY    65  64  97 S15       30.26F
$$

KYZ035>037-039>044-047>052-055>060-089>105-231900-
NORTHEAST KENTUCKY

CITY           SKY/WX    TMP DP  RH WIND       PRES   REMARKS
LEXINGTON      CLOUDY    67  62  84 SW12      30.30F
COVINGTON      CLOUDY    63  61  93 SW14G21   30.22F
FRANKFORT      LGT RAIN  64  60  87 SW12G21   30.27F
$$

KYZ054-064>069-076>088-106>120-231900-
SOUTHEAST KENTUCKY

CITY           SKY/WX    TMP DP  RH WIND       PRES   REMARKS
JACKSON        PTSUNNY   75  59  57 VRB7      30.32F
LONDON         FAIR      74  59  59 SW15G29   30.33F
SOMERSET       FAIR      73  59  60 W15G25    30.34F
MIDDLESBORO    PTSUNNY   77  60  56 S6G16     30.35F
MONTICELLO     NOT AVBL
$$





USA.gov is the U.S. government's official web portal to all federal, state and local government web resources and services.